Location: ?????
(31.8092°N, 35.2590°E)
Time: 02:51:40
(UTC+00:00)

Meteor 2-5 Rocket - Pass Details

Date: 20 June 2021
Orbit: 833 x 911 km, 81.2° (Epoch: 04 August)

Event Time Altitude Azimuth Distance (km) Brightness Sun altitude
Exits shadow 18:36:03 30° 104° (ESE) 1,450 4.5 -19.3°
Maximum altitude 18:36:42 31° 91° (E) 1,425 4.5 -19.4°
Drops below altitude 10° 18:41:32 10° 30° (NNE) 2,465 6.3 -20.1°
Sets 18:44:12 0° 21° (NNE) 3,413 7.2 -20.5°
